IRIDIUM 12 [B]

Last updated on Tue Aug 14 2018 00:20:44 GMT+0000 (Coordinated Universal Time)

1 24837U 97030B 18224.90552340 .00000119 00000-0 32414-4 0 9997 2 24837 86.4267 173.8314 0002332 85.5750 330.4844 14.38603960107178
UTC large
Height (km)
Speed (km/s)
/
Latitude / Longitude
Inclination (degrees)
Orbital Period (minutes)
Azimuth
Elevation
Range (km)
Doppler Factor

Next 0 passes for location: London (51.5072 / 0.1276)

Sorry there are no passes over London.